This demonstration page uses our WeatherBlox Daily Observations layout. Learn more.

Left ArrowRight Arrow

Hourly Observations for April 12, 2018

Temp ( °F °C ) Dew Point ( °F °C ) Humidity (%) Winds ( mph kmh ) Pressure ( in mb ) Visibility ( mi km ) Precip ( " mm )
12:51 am 00:51 Clear 67 19.4 12 -11.1 12 12 S 5 7 29.75 1008 10 16 0.00 0.00
1:51 am 01:51 Clear 59 15 12 -11.1 15 15 S 5 7 29.75 1008 10 16 0.00 0.00
2:51 am 02:51 Clear 59 15 11 -11.7 15 15 E 6 9 29.73 1007 10 16 0.00 0.00
3:51 am 03:51 Clear 59 15 11 -11.7 15 15 ESE 6 9 29.72 1007 10 16 0.00 0.00
4:51 am 04:51 Clear 56 13.3 13 -10.6 18 18 E 5 7 29.74 1007 10 16 0.00 0.00
5:51 am 05:51 Clear 55 12.8 15 -9.4 20 20 E 8 13 29.74 1007 10 16 0.00 0.00
6:51 am 06:51 Sunny 64 17.8 16 -8.9 15 15 E 8 13 29.74 1007 10 16 0.00 0.00
7:51 am 07:51 Sunny 72 22.2 18 -7.8 13 13 ESE 8 13 29.73 1007 10 16 0.00 0.00
8:51 am 08:51 Sunny 75 23.9 17 -8.3 11 11 SE 6 9 29.73 1007 10 16 0.00 0.00
9:51 am 09:51 Sunny 80 26.7 15 -9.4 8 8 VRB 6 9 29.72 1006 10 16 0.00 0.00
10:51 am 10:51 Sunny 84 28.9 17 -8.3 8 8 W 10 17 29.68 1005 10 16 0.00 0.00
11:23 am 11:23 Sunny 85 29.4 14 -10 7 7 SSW 17 28 29.59 1002 10 16 0.00 0.00
11:51 am 11:51 Sunny 87 30.6 12 -11.1 6 6 WSW 16 26 29.64 1004 10 16 0.00 0.00
12:51 pm 12:51 Sunny 87 30.6 15 -9.4 7 7 W 23 37 29.63 1004 10 16 0.00 0.00
1:51 pm 13:51 Sunny 88 31.1 15 -9.4 7 7 W 28 44 29.61 1003 10 16 0.00 0.00
2:51 pm 14:51 Sunny 88 31.1 19 -7.2 8 8 W 22 35 29.58 1002 10 16 0.00 0.00
3:51 pm 15:51 Sunny 85 29.4 20 -6.7 9 9 WSW 15 24 29.55 1001 10 16 0.00 0.00
4:51 pm 16:51 Sunny 84 28.9 16 -8.9 8 8 WNW 30 48 29.54 1000 10 16 0.00 0.00
5:51 pm 17:51 Hazy 80 26.7 16 -8.9 9 9 W 30 48 29.55 1001 6 10 0.00 0.00
6:13 pm 18:13 Mostly Cloudy 78 25.6 14 -10 9 9 WNW 25 41 29.47 998 8 13 0.00 0.00
6:23 pm 18:23 Mostly Cloudy 77 25 15 -9.4 9 9 WNW 23 37 29.47 998 9 14 0.00 0.00
6:33 pm 18:33 Cloudy 76 24.4 14 -10 9 9 WNW 24 39 29.47 998 7 11 0.00 0.00
6:51 pm 18:51 Cloudy with Haze 76 24.4 17 -8.3 11 11 W 30 48 29.55 1001 5 8 0.00 0.00
7:00 pm 19:00 Cloudy 75 24 18 -8 11 11 WNW 32 52 29.50 999 9 14 0.00 0.00
7:51 pm 19:51 Cloudy with Haze 70 21.1 9 -12.8 9 9 NW 25 41 29.59 1002 6 10 0.00 0.00
8:51 pm 20:51 Cloudy 67 19.4 10 -12.2 11 11 WNW 30 48 29.64 1004 8 13 0.00 0.00
9:51 pm 21:51 Mostly Clear 65 18.3 14 -10 14 14 WNW 25 41 29.65 1004 10 16 0.00 0.00
10:51 pm 22:51 Mostly Cloudy 63 17.2 17 -8.3 17 17 WNW 22 35 29.69 1005 10 16 0.00 0.00
11:51 pm 23:51 Clear 60 15.6 13 -10.6 16 16 WNW 12 19 29.72 1007 10 16 0.00 0.00

Powered by AerisWeather